Погода в Слуцке

Погода в Слуцке : погода сейчас, прогноз погоды и архив. Всё, что Вы хотите узнать о погоде в Слуцке!

Хотите узнать прогноз погоды в Слуцке? Тогда Вам сюда: Погода в Слуцке

Поиск расширенной информации на нашем сайте:

Другие новости

Новости СМИ2

Главная страница сайта

Новости сайта

02.10.2013

Напоминаем, что на нашем новом сайте вы можете получить высокодетализированные прогнозы погоды по пунктам России, СНГ и мира (включающие важные для авиации метеовеличины, такие как направление и скорость ветра, видимость, явления погоды, количество и форма облачности, нижняя и верхняя граница облачности), а также ознакомиться с разнообразными материалами по авиационной метеорологии и подборкой полезных ссылок на эту тему.

Сайт Метеоцентр.Азия посвящён разработке технологий оптимизации авиаметеорологического обслуживания, включая проектирование и перспективное создание нескольких автоматизированных авиаметеорологических систем:
- система выпуска высокодетальных прогностических карт явлений погоды для нижнего воздушного пространства по России и ближнему зарубежью;
- система верификации прогнозов TAF (выпускаемых синоптиками официальных АМСГ РФ и ближнего зарубежья) и AUTOTAF (выпускаемых сайтом Метеоцентр.Азия) - выявление ошибок, онлайн-сопоставление с фактической погодой METAR, автоматическое внесение коррективов в прогнозы при резком отклонении фактической погоды от прогноза, подсчёт оправдываемости прогнозов по элементам и в целом;
- система обработки, анализа и отображения авиаметеорологической информации для применения провайдерами метеорологической информации.


Погода в Слуцке - сегодня

Время (UTC), дата Ветер
(°,м/с) 
Видим.   Явления Облачность Т
(°С)
Тd
(°С)
f(%) Тe
(°С)
Pmin
(гПа)
dP
(гПа)
Po
(мм)
O2
(г/м3)
Тmin Tmax R s Состояние
почвы
18 27.06.16 010 (С) 5{11}  12000 м    9/8 700 м верхняя 
[Sc|Cs]
+22 +17.7 77 +36  1012  745  274    +29.1       
21 27.06.16 350 (С) 11000 м    9/9 960 м 
[Sc]
+20.3 +17 81 +33  1011.9  -0.2  745  276           
00 28.06.16 350 (С) 13000 м    9/4 600 м средняя 
[Sc|Ac und]
+19 +16.5 85 +31  1011.7  -0.2  745  277           
03 28.06.16 010 (С) 14000 м    8/5 600 м средняя 
[Sc|Ac trans]
+17.2 +15.7 91 +28  1012.1  0.2  745  279           
06 28.06.16 030 (СВ) 16000 м    8/5 600 м средняя 
[Sc|Ac und]
+19.4 +13.8 70 +27  1012.4  0.5  745  278  +17.2         
09 28.06.16 350 (С) 19000 м    6/0 средняя, верхняя 
[Ac trans|Ci]
+21.8 +12.5 55 +27  1012.6  0.3  745  276           
12 28.06.16 010 (С) 19000 м    5/3 600 м верхняя 
[Cu med, cong|Ci]
+24.3 +11.9 46 +28  1011.6  -0.9  745  273           
15 28.06.16 030 (СВ) 20000 м    6/3 1000 м средняя, верхняя 
[Cu med, cong|Ac trans|Ci fib]
+25.5 +11.9 43 +29  1010.7  -0.7  744  272           
18 28.06.16 020 (С) 14000 м    9/6 600 м средняя, верхняя 
[Sc|Ac trans|Ci fib]
+22.6 +14.5 60 +31  1011.7  0.7  745  274    +26.2       
21 28.06.16 020 (С) 14000 м    8/0 средняя, верхняя 
[Ac und|Ci fib]
+18 +14.4 79 +27  1012.6  0.6  745  279           
00 29.06.16 020 (С) 12000 м    9/0 средняя 
[Ac und]
+17.6 +14.3 81 +26  1013.1  0.5  746  279           
03 29.06.16 360 (С) 15000 м    9/0 средняя, верхняя 
[Ac und|Ci]
+16.2 +13.1 82 +24  1013.6  0.4  746  281           
06 29.06.16 020 (С) 20000 м    8/0 средняя, верхняя 
[Ac trans|Ci sp]
+19.9 +13.6 67 +27  1013.4  0.1  746  277  +15.6         
09 29.06.16 020 (С) 20000 м    8/5 600 м средняя 
[Cu hum|Ac trans]
+23.9 +13.4 52 +30  1013.4  0.2  746  274           
12 29.06.16 360 (С) 25000 м    8/6 600 м средняя 
[Cu hum|Ac trans]
+25.9 +13.1 45 +32  1012.9  -0.3  746  272           
15 29.06.16 030 (СВ) 25000 м    6/6 600 м 
[Cu med, cong]
+26.6 +13.4 44 +33  1012.1  -0.8  745  271           
18 29.06.16 020 (С) 19000 м    3/0 верхняя 
[Ci sp]
+23.9 +15.2 58 +33  1012.6  0.3  746  273    +27.1       
21 29.06.16 330 (СЗ) 14000 м    ясно 
+17.2 +14 81 +26  1014.3  1.2  746  280           
00 30.06.16 360 (С) 13000 м    ясно 
+15 +13 88 +22  1014.7  0.3  747  283           
03 30.06.16 030 (СВ) 12000 м    ясно 
+14.2 +12.4 89 +20  1015.2  0.5  747  284           
06 30.06.16 тихо ()   25000 м    ясно 
+23.3 +17.2 69 +36  1015.4  0.8  748  274  +13.7         
09 30.06.16 350 (С) 22000 м    4/4 600 м 
[Cu hum]
+26.2 +13.5 45 +32  1015.5  0.3  748  272           
12 30.06.16 350 (С) 27000 м    4/4 600 м 
[Cu hum]
+28.7 +10.9 33 +31  1014.8  -0.6  747  271           
15 30.06.16 100 (В) 25000 м    1/1 600 м 
[Cu hum]
+29 +11.5 34 +32  1014.1  -0.7  747  270           
18 30.06.16 тихо ()   20000 м    3/1 600 м верхняя 
[Sc diur, vesp|Ci fib]
+26.1 +17.7 60 +40  1014.5  0.3  747  271    +29.4       
Время (UTC), дата Ветер
(°,м/с) 
Видим.   Явления Облачность Т
(°С)
Тd
(°С)
f(%) Тe
(°С)
Pmin
(гПа)
dP
(гПа)
Po
(мм)
O2
(г/м3)
Тmin Tmax R s Состояние
почвы

Для получения пояснительной информации подведите курсор к названию столбца.

ПОГОДА в Слуцке - архив

Всё, что Вы хотите узнать о погоде в Слуцке - удобно и подробно!

Выберите нужную дату (начиная с 1 января 2015* года) и нажмите кнопку "Найти".
Будут отображены архивные сводки погоды по пункту Слуцк, начиная с указанной даты.


Отображать данные в формате CSV (для использования в таблицах Excel)


Внимание! Наш архив погоды предназначен исключительно для личного некоммерческого использования в познавательных целях. Если Вам необходимы официальные справки о состоянии погоды (для производственных, юридических, коммерческих и т.п. целей), обращайтесь в органы Росгидромета.

*Примечание: данная дата относится к архиву по метеостанциям СССР (Россия, СНГ, Балтия).
Архив по метеостанциям Зарубежной Европы и Азии (кроме Китая) хранится 10 дней, по другим регионам земного шара (Китай, Африка, Америка, Австралия, Океания) - 1 день.

Слуцк - район местоположения метеостанции


Название, широта, долгота, высота метеостанции:
Слуцк 53°ш. 27.6°д. 162 м над ур. моря [Беларусь]

Дополнительная информация

В oтличие oт бoльшинства пoгoдных сайтoв мы публикуем пoдрoбную метеoинфoрмацию в детальнoм прoфессиoнальнoм фoрмате.

Характеристики температуры и влажнoсти вoздуха измеряются на высoте 2 м в тени вдали oт зданий и деревьев.
Скoрoсть ветра измеряется на высoте 10 м (на урoвне рoста челoвека скoрoсть ветра ниже в 1.5-2 раза). Если метеoстанция нахoдится в гoрoде или в лесу, тo скoрoсть ветра занижена на 2-4 м/с пo сравнению с oткрытым местoм. Скoрoсть ветра над акватoриями крупных рек и oзёр, а также на вершинах хoлмoв на 2-5 м/с выше, чем в oбычных услoвиях.
Атмoсфернoе давление в разных тoчках местнoсти мoжет значительнo oтличаться oт давления на метеoстанции, в зависимoсти oт услoвий рельефа (при пoдъёме на 10 м давление пoнижается примернo на 1 мм рт.ст.).